[[{"header":{"parameterUnit":"m.s-1","parameterCategory":1,"la1":30.2992,"la2":30.254,"lo1":-89.0895,"lo2":-89.0443,"dy":0.0025,"dx":0.0025,"nx":19,"ny":19,"refTime":"2026-03-26T09:00:00:Z","depth":0,"parameterNumber":2,"parameterNumberName":"U-component_of_WINDS"},"data":[0,0,0,2.3462,2.3465,2.3607,2.3608,2.3789,2.379,0,0,0,0,0,0,0,0,0,0,0,2.3415,2.3416,2.3462,2.3465,2.3607,2.3608,2.3788,2.379,0,0,0,0,0,0,0,0,0,0,0,2.3415,2.3416,2.3417,2.3466,2.3607,2.3608,2.3788,2.3682,0,0,0,0,0,0,0,0,0,0,2.3545,2.3495,2.3416,2.3417,2.3467,2.3607,2.3608,2.3677,2.3689,2.3722,0,2.3747,0,2.3771,2.3802,2.3802,0,0,0,2.347,2.3485,2.3528,2.3417,2.3468,2.3607,2.3545,2.3684,2.3697,2.3738,2.375,2.3757,2.3774,2.3803,2.3804,2.3975,2.3976,0,0,2.3462,2.3439,2.3519,2.3536,2.351,2.354,2.3549,2.3692,2.3705,2.3751,2.3761,2.3777,2.3804,2.3805,2.3975,2.3975,0,0,0,2.3436,2.3433,2.3472,2.3529,2.3554,2.3544,2.3554,2.3698,2.3713,2.3763,2.378,2.3805,2.3807,2.3974,2.3975,2.3979,0,0,0,2.3432,2.3418,2.3469,2.3456,2.3551,2.3627,2.3558,2.3703,2.372,2.3779,2.3805,2.3809,2.3973,2.3974,2.3977,2.3984,0,0,0,2.3408,2.3415,2.3434,2.3454,2.3514,2.3625,2.3648,2.3707,2.373,2.3803,2.3809,2.3973,2.3974,2.3976,2.3982,2.4022,0,0,0,2.3376,2.3436,2.3433,2.3508,2.3513,2.3626,2.3648,2.3734,2.3797,2.3806,2.3973,2.3975,2.3976,2.3981,2.4021,2.405,2.406,0,0,2.3439,2.3443,2.3489,2.3491,2.3598,2.3606,2.3717,2.3798,2.3829,2.3926,2.393,2.3978,2.3982,2.4022,2.4129,2.4136,0,0,0,2.3501,2.3534,2.3568,2.3625,2.3688,2.3743,2.381,2.3841,2.3924,2.3872,2.4005,2.4008,2.4033,2.4048,2.4054,2.4077,2.3981,2.3981,2.3981,2.3555,2.359,2.3669,2.3722,2.3778,2.3848,2.3898,2.3952,2.3972,2.4003,2.4031,2.4091,2.4108,2.4113,2.4136,2.4051,2.4051,2.4051,2.4051,2.365,2.3702,2.3728,2.3813,2.3851,2.3926,2.3998,2.4009,2.4086,2.4072,2.4096,2.4075,2.412,2.4143,2.4052,2.4052,2.4052,2.4052,2.4051,2.3688,2.3718,2.3755,2.3844,2.391,2.3964,2.4036,2.4069,2.4102,2.4125,2.4159,2.4159,2.4162,2.4139,2.4139,2.414,2.414,2.414,2.414,2.3711,2.3752,2.3807,2.3881,2.3924,2.3985,2.406,2.4104,2.4163,2.4182,2.4182,2.4199,2.4119,2.4096,2.4143,2.4143,2.4142,2.4142,2.4142,2.379,2.3779,2.3863,2.3906,2.3998,2.4063,2.4106,2.4195,2.4237,2.4273,2.4287,2.4222,2.4229,2.4224,2.4206,2.4278,2.4278,2.4278,2.4278,2.382,2.3828,2.3923,2.399,2.4061,2.4109,2.4208,2.4269,2.433,2.436,2.4355,2.4335,2.4329,2.434,2.4332,2.4316,2.4415,2.4415,2.4415,2.3871,2.3888,2.3962,2.402,2.4096,2.4161,2.4256,2.4336,2.4404,2.4421,2.4384,2.4378,2.4346,2.4334,2.4346,2.4334,2.4305,0,0]},{"header":{"parameterUnit":"m.s-1","parameterCategory":1,"la1":30.2992,"la2":30.254,"lo1":-89.0895,"lo2":-89.0443,"dy":0.0025,"dx":0.0025,"nx":19,"ny":19,"refTime":"2026-03-26T09:00:00:Z","depth":0,"parameterNumber":3,"parameterNumberName":"V-component_of_WINDS"},"data":[0,0,0,2.129,2.1292,2.1412,2.1413,2.1551,2.1552,0,0,0,0,0,0,0,0,0,0,0,2.1249,2.125,2.129,2.1293,2.1412,2.1413,2.1551,2.1552,0,0,0,0,0,0,0,0,0,0,0,2.1249,2.125,2.1251,2.1293,2.1412,2.1413,2.1551,2.1465,0,0,0,0,0,0,0,0,0,0,2.1351,2.131,2.125,2.1251,2.1294,2.1412,2.1413,2.1461,2.147,2.1492,0,2.1513,0,2.1535,2.1561,2.1562,0,0,0,2.1296,2.1302,2.1339,2.1251,2.1295,2.1412,2.1359,2.1466,2.1477,2.1504,2.1515,2.152,2.1537,2.1562,2.1563,2.1678,2.1678,0,0,2.129,2.1268,2.1331,2.1345,2.1329,2.1355,2.1363,2.1473,2.1482,2.1515,2.1523,2.1539,2.1563,2.1564,2.1678,2.1678,0,0,0,2.1268,2.1263,2.1298,2.1339,2.1362,2.1359,2.1367,2.1477,2.149,2.1525,2.1541,2.1564,2.1565,2.1677,2.1678,2.1675,0,0,0,2.1264,2.1251,2.1294,2.1282,2.136,2.1422,2.1369,2.1483,2.1496,2.154,2.1564,2.1566,2.1677,2.1678,2.1674,2.1678,0,0,0,2.1243,2.1248,2.1264,2.1281,2.1332,2.1421,2.144,2.1486,2.1505,2.1562,2.1567,2.1677,2.1678,2.1674,2.1677,2.17,0,0,0,2.1214,2.1262,2.1264,2.1321,2.1331,2.1418,2.144,2.1506,2.1554,2.1564,2.1677,2.1678,2.1674,2.1676,2.1699,2.1716,2.1721,0,0,2.1262,2.1267,2.1302,2.1307,2.1389,2.1402,2.1482,2.1547,2.1571,2.164,2.1643,2.1674,2.1677,2.17,2.1757,2.1761,0,0,0,2.131,2.1335,2.1361,2.1406,2.1455,2.1496,2.1551,2.1573,2.1632,2.1603,2.169,2.1692,2.1706,2.1715,2.1719,2.1731,2.1681,2.1681,2.1681,2.1348,2.1375,2.1434,2.1474,2.1516,2.1568,2.1604,2.1643,2.166,2.1679,2.1701,2.1732,2.1742,2.1744,2.1757,2.1711,2.1711,2.1711,2.1711,2.1419,2.1458,2.1475,2.1538,2.1564,2.1617,2.1666,2.1675,2.1725,2.172,2.1734,2.1726,2.1748,2.176,2.1711,2.1711,2.1711,2.1711,2.1711,2.1448,2.1471,2.1496,2.1559,2.1603,2.164,2.1687,2.1709,2.1731,2.1744,2.1767,2.1767,2.1769,2.1753,2.1753,2.1754,2.1754,2.1754,2.1754,2.1468,2.1496,2.1534,2.1585,2.1613,2.1653,2.17,2.1728,2.1764,2.1776,2.1777,2.1789,2.1745,2.1733,2.1756,2.1755,2.1755,2.1755,2.1755,2.1531,2.1519,2.1577,2.1605,2.1663,2.1703,2.1729,2.1781,2.1807,2.1828,2.1835,2.1799,2.1806,2.1804,2.1794,2.1831,2.1831,2.1831,2.1831,2.1555,2.1559,2.1621,2.1662,2.1706,2.1733,2.1792,2.1826,2.186,2.1876,2.1873,2.1862,2.1858,2.1867,2.1863,2.1855,2.1906,2.1906,2.1906,2.1595,2.1603,2.1652,2.1684,2.1729,2.1767,2.1821,2.1866,2.1901,2.191,2.1888,2.1885,2.1867,2.1861,2.1872,2.1865,2.185,0,0]}]]